| time (UTC) | temp F | wind direction | speed knots | gust knots | rain 1hr in | rain 24hr in | rain mn in | humidity % | barometer mb |
| 20260507033146 | 74 | 148 | 4.3 | 7.0 | 0.00 | 0.00 | 0.00 | 93 | 1011.8 |
| 20260507031646 | 74 | 179 | 2.6 | 5.2 | 0.00 | 0.00 | 0.00 | 93 | 1011.9 |
| 20260507024645 | 74 | 193 | 5.2 | 7.0 | 0.00 | 0.00 | 0.00 | 93 | 1012.5 |
| 20260507023145 | 74 | 241 | 2.6 | 9.6 | 0.00 | 0.00 | 0.00 | 93 | 1012.3 |
| 20260507021645 | 74 | 197 | 0.0 | 4.3 | 0.00 | 0.00 | 0.00 | 92 | 1012.0 |
| 20260507020144 | 75 | 197 | 2.6 | 7.8 | 0.00 | 0.00 | 0.00 | 92 | 1011.5 |
| 20260507014644 | 75 | 177 | 1.7 | 5.2 | 0.00 | 0.00 | 0.00 | 92 | 1011.4 |
| 20260507013144 | 75 | 172 | 2.6 | 7.8 | 0.00 | 0.00 | 0.00 | 91 | 1011.4 |
| 20260507011644 | 75 | 214 | 2.6 | 4.3 | 0.00 | 0.00 | 0.00 | 91 | 1011.8 |
| 20260507010144 | 75 | 176 | 1.7 | 4.3 | 0.00 | 0.00 | 0.00 | 91 | 1011.7 |
| 20260507004644 | 75 | 176 | 2.6 | 4.3 | 0.00 | 0.00 | 0.00 | 90 | 1011.9 |
| 20260507003143 | 75 | 210 | 2.6 | 5.2 | 0.00 | 0.00 | 0.00 | 90 | 1012.2 |
| 20260507001643 | 75 | 153 | 2.6 | 4.3 | 0.00 | 0.00 | 0.00 | 90 | 1012.0 |
| 20260507000143 | 75 | 184 | 7.8 | 10.4 | 0.00 | 0.00 | 0.00 | 90 | 1011.8 |
| 20260506234643 | 75 | 181 | 7.0 | 7.0 | 0.00 | 0.00 | 0.00 | 89 | 1011.8 |
| 20260506233142 | 75 | 146 | 5.2 | 5.2 | 0.00 | 0.00 | 0.00 | 89 | 1011.6 |
| 20260506230142 | 76 | 198 | 4.3 | 9.6 | 0.00 | 0.00 | 0.00 | 88 | 1011.8 |
| 20260506224642 | 76 | 155 | 1.7 | 4.3 | 0.00 | 0.00 | 0.00 | 89 | 1012.0 |
| 20260506223141 | 76 | 226 | 2.6 | 4.3 | 0.00 | 0.00 | 0.00 | 88 | 1012.1 |
| 20260506221642 | 76 | 180 | 2.6 | 7.8 | 0.00 | 0.00 | 0.00 | 88 | 1012.4 |
| 20260506220141 | 77 | 156 | 4.3 | 13.0 | 0.00 | 0.00 | 0.00 | 87 | 1012.3 |
| 20260506214641 | 78 | 197 | 5.2 | 5.2 | 0.00 | 0.00 | 0.00 | 85 | 1012.4 |
| 20260506213141 | 78 | 139 | 4.3 | 5.2 | 0.00 | 0.00 | 0.00 | 84 | 1012.5 |
| 20260506211641 | 78 | 203 | 2.6 | 7.0 | 0.00 | 0.00 | 0.00 | 84 | 1012.6 |
| 20260506210141 | 78 | 124 | 5.2 | 7.8 | 0.00 | 0.00 | 0.00 | 85 | 1012.6 |
| 20260506203140 | 77 | 169 | 2.6 | 7.8 | 0.00 | 0.00 | 0.00 | 87 | 1012.9 |
| 20260506201641 | 77 | 229 | 2.6 | 7.8 | 0.00 | 0.00 | 0.00 | 86 | 1013.3 |
| 20260506200140 | 77 | 167 | 1.7 | 1.7 | 0.00 | 0.00 | 0.00 | 86 | 1013.1 |
| 20260506194640 | 78 | 168 | 1.7 | 2.6 | 0.00 | 0.00 | 0.00 | 85 | 1013.4 |
| 20260506193140 | 78 | 200 | 0.0 | 0.0 | 0.00 | 0.00 | 0.00 | 84 | 1013.6 |
| 20260506191640 | 79 | 165 | 4.3 | 5.2 | 0.00 | 0.00 | 0.00 | 84 | 1013.9 |
| 20260506190139 | 78 | 174 | 0.0 | 2.6 | 0.00 | 0.00 | 0.00 | 85 | 1014.1 |
| 20260506184639 | 78 | 267 | 0.0 | 2.6 | 0.00 | 0.00 | 0.00 | 84 | 1014.4 |
| 20260506183139 | 79 | 232 | 1.7 | 2.6 | 0.00 | 0.00 | 0.00 | 82 | 1014.4 |
| 20260506181639 | 79 | 181 | 1.7 | 5.2 | 0.00 | 0.00 | 0.00 | 82 | 1014.4 |
| 20260506174638 | 79 | 166 | 1.7 | 7.0 | 0.00 | 0.00 | 0.00 | 82 | 1014.7 |
| 20260506173138 | 79 | 198 | 1.7 | 4.3 | 0.00 | 0.00 | 0.00 | 82 | 1014.8 |
| 20260506171638 | 78 | 155 | 0.0 | 5.2 | 0.00 | 0.00 | 0.00 | 84 | 1014.8 |
| 20260506170138 | 78 | 231 | 1.7 | 1.7 | 0.00 | 0.00 | 0.00 | 83 | 1015.0 |
| 20260506164637 | 78 | 200 | 0.0 | 1.7 | 0.00 | 0.00 | 0.00 | 84 | 1015.2 |
| 20260506163137 | 78 | 164 | 2.6 | 7.0 | 0.00 | 0.00 | 0.00 | 81 | 1015.1 |
| 20260506161637 | 79 | 194 | 2.6 | 7.8 | 0.00 | 0.00 | 0.00 | 80 | 1015.0 |
| 20260506160137 | 79 | 163 | 0.0 | 1.7 | 0.00 | 0.00 | 0.00 | 81 | 1015.1 |
| 20260506154637 | 78 | 143 | 1.7 | 4.3 | 0.00 | 0.00 | 0.00 | 83 | 1015.2 |
| 20260506153136 | 77 | 154 | 2.6 | 7.8 | 0.00 | 0.00 | 0.00 | 85 | 1015.1 |
| 20260506151636 | 76 | 239 | 1.7 | 4.3 | 0.00 | 0.00 | 0.00 | 87 | 1014.8 |
| 20260506150136 | 76 | 173 | 4.3 | 4.3 | 0.00 | 0.00 | 0.00 | 87 | 1014.7 |
| 20260506144636 | 76 | 142 | 4.3 | 9.6 | 0.00 | 0.00 | 0.00 | 87 | 1014.7 |
| 20260506143135 | 76 | 191 | 2.6 | 2.6 | 0.00 | 0.00 | 0.00 | 87 | 1014.6 |
| 20260506141635 | 76 | 205 | 1.7 | 7.0 | 0.00 | 0.00 | 0.00 | 87 | 1014.4 |
| 20260506140205 | 76 | 154 | 0.0 | 2.6 | 0.00 | 0.00 | 0.00 | 87 | 1014.3 |
| 20260506134635 | 75 | 206 | 0.0 | 2.6 | 0.00 | 0.00 | 0.00 | 89 | 1014.1 |
| 20260506133134 | 74 | 194 | 0.0 | 0.0 | 0.00 | 0.00 | 0.00 | 91 | 1014.1 |
| 20260506131704 | 74 | 205 | 0.0 | 1.7 | 0.00 | 0.00 | 0.00 | 93 | 1014.0 |
| 20260506130204 | 73 | 162 | 1.7 | 1.7 | 0.00 | 0.00 | 0.00 | 94 | 1013.8 |
| 20260506123203 | 71 | 163 | 0.0 | 0.0 | 0.00 | 0.00 | 0.00 | 94 | 1013.5 |
| 20260506121703 | 70 | 202 | 2.6 | 2.6 | 0.00 | 0.00 | 0.00 | 94 | 1013.2 |
| 20260506120202 | 70 | 196 | 0.0 | 0.0 | 0.00 | 0.00 | 0.00 | 94 | 1013.0 |
| 20260506114702 | 69 | 168 | 0.0 | 1.7 | 0.00 | 0.00 | 0.00 | 94 | 1012.7 |
| 20260506113202 | 69 | 158 | 0.0 | 0.0 | 0.00 | 0.00 | 0.00 | 94 | 1012.5 |
| 20260506111702 | 69 | 214 | 0.0 | 0.0 | 0.00 | 0.00 | 0.00 | 94 | 1012.2 |
| 20260506104701 | 69 | 127 | 0.0 | 1.7 | 0.00 | 0.00 | 0.00 | 94 | 1011.6 |
| 20260506103201 | 69 | 214 | 0.0 | 1.7 | 0.00 | 0.00 | 0.00 | 94 | 1011.6 |
| 20260506101701 | 69 | 155 | 0.0 | 0.0 | 0.00 | 0.00 | 0.00 | 94 | 1011.4 |
| 20260506100200 | 68 | 204 | 0.0 | 2.6 | 0.00 | 0.00 | 0.00 | 94 | 1011.2 |
| 20260506094700 | 68 | 179 | 0.0 | 0.0 | 0.00 | 0.00 | 0.00 | 94 | 1011.2 |
| 20260506093200 | 67 | 162 | 0.0 | 0.0 | 0.00 | 0.00 | 0.00 | 94 | 1011.2 |
| 20260506091700 | 67 | 155 | 0.0 | 0.0 | 0.00 | 0.00 | 0.00 | 94 | 1011.3 |
| 20260506090159 | 66 | 167 | 0.0 | 0.0 | 0.00 | 0.00 | 0.00 | 94 | 1011.3 |
| 20260506084659 | 65 | 167 | 0.0 | 0.0 | 0.00 | 0.00 | 0.00 | 94 | 1011.6 |
| 20260506083159 | 65 | 167 | 0.0 | 0.0 | 0.00 | 0.00 | 0.00 | 94 | 1011.7 |
| 20260506081659 | 65 | 167 | 0.0 | 0.0 | 0.00 | 0.00 | 0.00 | 94 | 1011.7 |
| 20260506080158 | 65 | 185 | 0.0 | 0.0 | 0.00 | 0.00 | 0.00 | 94 | 1011.9 |
| 20260506073158 | 65 | 208 | 0.0 | 0.0 | 0.00 | 0.00 | 0.00 | 94 | 1012.0 |
| 20260506070157 | 66 | 208 | 0.0 | 0.0 | 0.00 | 0.00 | 0.00 | 94 | 1012.2 |
| 20260506061657 | 66 | 148 | 0.0 | 0.0 | 0.00 | 0.00 | 0.00 | 94 | 1012.4 |
| 20260506060156 | 65 | 172 | 0.0 | 0.0 | 0.00 | 0.00 | 0.00 | 94 | 1012.6 |
| 20260506044655 | 64 | 171 | 0.0 | 0.0 | 0.00 | 0.00 | 0.00 | 95 | 1013.3 |
| 20260506043155 | 64 | 171 | 0.0 | 0.0 | 0.00 | 0.00 | 0.00 | 95 | 1013.3 |
| 20260506041655 | 64 | 171 | 0.0 | 0.0 | 0.00 | 0.00 | 0.00 | 95 | 1013.3 |
| 20260506034654 | 65 | 171 | 0.0 | 0.0 | 0.00 | 0.00 | 0.00 | 94 | 1013.5 |